[Date Prev][Date Next][Thread Prev][Thread Next] - [Date Index][Thread Index][Author Index]

2 Line ISS Keps 3-25



ISS
1 25544U 98067A   04085.44710648  .00023294  00000-0  21638-3 0  4360
2 25544  51.6303  32.3839 0010650 318.1355 178.9430 15.67255122305170


----
Via the sarex mailing list at AMSAT.ORG courtesy of AMSAT-NA.
To unsubscribe, send "unsubscribe sarex" to Majordomo@amsat.org



AMSAT Top AMSAT Home